Location: Butte
(46.0040°N, 112.5340°W)
Time: 13:11:46
(UTC-06:00)

Daily predictions for brighter satellites

Satellite Brightness Start Highest point End
(mag) Time Altitude Azimuth Time Altitude Azimuth Time Altitude Azimuth
CENTAUR R/B 3.0 20:54:01 10° SW 21:00:09 70° NW 21:07:12 10° NE
Resurs 1-3 3.8 20:56:14 10° S 21:00:37 81° WSW 21:05:02 10° NNW
SeaSat 1 4.1 20:58:22 10° E 21:01:52 20° NE 21:05:23 10° N
Cosmos 2227 4.3 20:57:30 10° NNW 21:03:17 86° WSW 21:08:59 10° SSE
Abrixas rocket 2.3 21:00:37 10° SW 21:03:50 55° SSE 21:07:03 10° ENE
Cosmos 2360 4.2 21:02:07 10° SSW 21:07:49 76° ESE 21:13:34 10° NNE
Atlas Centaur 2 4.4 21:05:44 10° S 21:09:36 15° SSE 21:13:46 10° ESE
Cosmos 1455 2.4 21:09:24 10° SSW 21:13:11 75° W 21:16:59 10° N
Cosmos 2242 Rocket 4.0 21:10:09 10° SSE 21:14:25 43° E 21:18:40 10° NNE
CZ-4B DEB 4.5 21:14:53 10° SSE 21:18:26 76° ENE 21:22:00 10° N
Helios 1A 3.0 21:15:13 10° SSE 21:19:28 84° ENE 21:23:44 10° NNW
Cosmos 1627 Rocket 4.5 21:14:38 10° N 21:20:54 76° E 21:27:03 10° SSE
Molniya-1 2.5 21:20:19 10° SSW 21:22:04 58° SE 21:24:28 10° NE
Cosmos 1503 Rocket 4.0 21:17:28 10° NNW 21:22:47 78° ENE 21:27:59 10° SSE
Cosmos 2195 Rocket 4.4 21:18:11 10° N 21:24:20 82° E 21:30:28 10° S
Cosmos 1869 3.2 21:22:49 10° S 21:26:45 84° E 21:30:44 10° N
Cosmos 1354 Rocket 4.0 21:21:28 10° NNW 21:26:48 85° ENE 21:32:04 10° SSE
Cosmos 1867 4.5 21:23:18 10° NNW 21:28:21 37° NE 21:32:45 13° ESE
Cosmos 2279 Rocket 4.2 21:23:13 10° SSE 21:29:14 53° E 21:35:16 10° NNE
CZ-4B DEB 2.5 21:27:10 10° SSE 21:30:12 85° ENE 21:33:17 10° NNW
Cosmos 1697 Rocket 4.3 21:26:19 10° WSW 21:31:34 39° NW 21:36:51 10° NNE
Resurs 01 Rocket 3.3 21:28:00 10° SSW 21:32:02 33° W 21:36:07 10° NNW
BREEZE-M DEB (TANK) 4.4 21:29:30 10° SW 21:33:33 47° SE 21:44:05 10° ENE
Meteor 1-29 2.9 21:30:29 10° NNE 21:33:57 65° ESE 21:37:23 10° S
YAOGAN 6 3.1 21:31:23 14° SE 21:34:18 43° ENE 21:37:46 10° N
SJ-11-01 4.2 21:30:57 10° SSE 21:35:37 85° ENE 21:40:20 10° NNW
H-2A R/B 3.7 21:33:27 11° E 21:36:19 18° ENE 21:39:34 10° NNE
USA 267 3.9 21:32:26 10° NE 21:38:52 59° NNW 21:45:16 10° WSW
Cosmos 1428 Rocket 4.4 21:37:04 10° N 21:43:11 70° E 21:49:16 10° SSE
Cosmos 968 Rocket 4.2 21:38:34 10° N 21:43:27 39° ENE 21:46:52 18° ESE
Cosmos 2263 Rocket 2.2 21:40:07 10° NNW 21:45:42 74° ENE 21:50:08 16° SE
SPOT 5 3.7 21:43:25 17° ESE 21:46:22 33° ENE 21:50:31 10° N
Sich 1 Rocket 4.1 21:47:12 10° N 21:51:28 42° ENE 21:54:02 21° SE
Cosmos 1933 3.4 21:47:40 10° S 21:51:38 59° E 21:55:37 10° NNE
COSMOS 2428 4.3 21:52:08 15° E 21:52:08 15° E 21:55:10 10° ENE
Meteor 2-10 Rocket 4.1 21:46:52 10° SSE 21:52:21 44° E 21:57:48 10° NNE
Envisat 3.5 21:47:29 10° S 21:52:30 61° WSW 21:57:33 10° NNW
Cosmos 2322 Rocket 2.1 21:47:34 10° SSW 21:53:09 80° ESE 21:58:48 10° NNE
Cosmos 1825 3.1 21:54:20 10° NNW 21:58:01 48° W 22:01:40 10° S
H-2A R/B 3.9 22:01:06 15° E 22:02:26 17° ENE 22:05:11 10° NNE
Cosmos 2360 Rocket 2.6 21:58:23 10° S 22:03:36 40° ESE 22:08:51 10° NE
Cosmos 1908 Rocket 3.7 21:59:28 10° N 22:03:45 55° ENE 22:06:00 26° SE
Cosmos 1980 Rocket 3.9 21:59:27 10° WSW 22:04:39 36° NW 22:09:55 10° NNE
GENESIS II 4.2 22:01:23 10° SSW 22:05:24 66° SE 22:09:27 10° NE
Cosmos 2322 4.1 22:07:11 14° S 22:11:39 40° ESE 22:16:55 10° NE
USA 245 4.4 22:08:12 23° SE 22:11:45 56° ENE 22:16:41 10° N
Cosmos 1862 4.1 22:08:38 10° NNW 22:12:33 51° W 22:16:03 13° SSW
NOAA 11 4.2 22:09:51 21° SSE 22:13:35 75° ENE 22:19:04 10° N
USA 234 3.9 22:10:15 17° SSE 22:15:04 46° SW 22:21:20 10° WNW
Helios 1B rocket 4.0 22:11:25 10° N 22:15:12 36° WNW 22:18:57 10° SW
Cosmos 1782 Rocket 3.9 22:13:35 10° N 22:17:48 46° ENE 22:19:11 34° SE
Lacrosse 4 Rocket 3.0 22:14:34 10° NW 22:18:25 32° WSW 22:21:31 14° SSW
SL-16 R/B 2.6 22:15:22 10° SW 22:21:00 67° WNW 22:26:41 10° NNE
Okean 2 Rocket 3.8 22:17:00 10° N 22:21:14 37° ENE 22:22:22 32° ESE
SPOT 1/Viking Rocket 3.8 22:21:00 30° SE 22:23:19 52° ENE 22:28:24 10° N
Cosmos 1733 Rocket 4.3 22:20:10 10° NNW 22:24:20 40° W 22:28:29 10° SSW
ATLAS 5 CENTAUR R/B 2.4 22:19:55 10° NW 22:25:52 85° SW 22:29:19 29° SSE
ERS-1 Rocket 3.4 22:22:09 17° S 22:25:57 61° WSW 22:30:57 10° NNW
MetOp-B 4.1 22:23:30 24° SSE 22:26:48 88° WSW 22:32:12 10° NNW
Cosmos 1782 4.2 22:29:11 23° ENE 22:29:11 23° ENE 22:31:52 10° NE
Cosmos 2333 Rocket 4.1 22:34:09 13° ENE 22:34:09 13° ENE 22:35:36 10° ENE
Landsat 7 4.4 22:33:20 35° ESE 22:34:35 42° ENE 22:39:05 10° N
ARGOS 3.1 22:34:29 31° SSE 22:37:10 88° ENE 22:42:35 10° NNW
SeaSat 1 2.4 22:36:49 36° SSE 22:38:53 82° WSW 22:43:51 10° NNW
Cosmos 2278 Rocket 3.7 22:35:02 10° N 22:39:37 24° NE 22:41:58 19° E
Abrixas rocket 2.7 22:37:25 10° W 22:40:40 57° N 22:41:21 45° NE
Cosmos 1777 Rocket 4.1 22:40:04 10° NNW 22:45:21 66° ENE 22:46:55 44° SE
Okean 1-7 3.0 22:44:46 52° SE 22:45:34 64° E 22:49:57 10° NNE
Meteor 1-26 Rocket 4.3 22:40:50 15° SSW 22:45:35 82° W 22:51:25 10° N
Cosmos 1844 Rocket 2.9 22:43:33 10° NNW 22:49:02 55° ENE 22:50:44 40° ESE
SL-08 RB Rocket 3.7 22:47:56 45° S 22:49:21 85° WSW 22:53:57 10° NNW
Terra 2.4 22:48:57 38° E 22:49:43 41° ENE 22:54:12 10° N
Cosmos 1703 Rocket 3.7 22:51:18 32° SSW 22:53:17 73° W 22:57:43 10° N
Cosmos 2151 Rocket 4.2 22:50:31 10° N 22:54:42 40° ENE 22:54:48 40° E
Atlas Centaur 2 4.0 22:51:52 10° SW 22:56:51 24° S 22:56:51 24° S
Cosmos 2266 Rocket 4.3 22:52:55 10° NNW 22:59:05 63° W 23:02:49 25° SSW
Cosmos 2221 Rocket 3.5 22:58:59 49° SSW 23:00:08 82° W 23:04:36 10° N
USA 229 DEB 3.6 22:53:25 10° SSW 23:00:10 68° ESE 23:07:05 10° NE
USA 229 3.6 22:53:31 10° SSW 23:00:15 67° ESE 23:07:09 10° NE
Nimbus 7 Rocket 4.4 22:58:36 10° NNE 23:04:33 88° WNW 23:08:00 27° SSW
Cosmos 2219 Rocket 3.0 23:10:17 33° E 23:10:17 33° E 23:14:24 10° NE
CARTOSAT-1 3.6 23:09:41 62° ENE 23:09:43 62° ENE 23:14:01 10° N
DMSP B5D2-2 4.0 23:06:19 10° NNE 23:11:33 62° ESE 23:12:06 58° SE
Cosmos 1867 4.2 23:06:53 10° NW 23:12:04 45° WSW 23:13:26 37° SSW
Meteor 1-10 Rocket 4.3 23:12:05 51° SSE 23:13:27 68° E 23:19:17 10° NNE
CZ-4C R/B 3.4 23:07:11 10° NNW 23:13:48 47° NE 23:17:19 29° E
Meteor 1-11 Rocket 4.0 23:09:37 10° N 23:14:59 49° ENE 23:15:38 46° E
H-2A R/B 2.1 23:14:05 50° SSW 23:15:15 68° WSW 23:20:12 10° NNW
Cosmos 2084 4.5 23:12:27 10° NNW 23:15:54 32° NE 23:15:54 32° NE
MOS 1-B Rocket 4.5 23:13:24 30° SSW 23:16:09 51° W 23:21:39 10° NNW
Cosmos 1244 Rocket 4.4 23:14:34 10° N 23:20:50 88° W 23:22:40 50° S
Okean 1 Rocket 4.4 23:16:56 10° N 23:20:16 29° ENE 23:20:16 29° ENE
ASTEX 1 3.3 23:23:00 72° ESE 23:23:22 76° E 23:28:22 10° N
SPOT 5 4.2 23:22:38 24° SW 23:24:25 31° W 23:28:37 10° NW
Cosmos 1536 4.4 23:21:11 10° NNE 23:23:47 26° NE 23:23:47 26° NE
Cosmos 2237 4.2 23:23:57 31° SSW 23:26:47 80° WNW 23:32:33 10° NNE
Cosmos 2263 Rocket 4.3 23:25:24 10° WNW 23:28:58 18° W 23:31:52 12° SW
Geosat 3.8 23:25:25 10° NNE 23:30:29 78° ESE 23:30:39 77° SE
Cosmos 1553 Rocket 3.9 23:32:37 59° SE 23:33:34 67° E 23:39:44 10° NNE
CZ-4C R/B 4.5 23:36:21 35° NNE 23:36:21 35° NNE 23:38:49 10° N
COSMOS 2428 2.6 23:34:03 52° SSW 23:35:33 87° WNW 23:41:19 10° NNE
SL-08 R/B 4.3 23:30:25 10° N 23:36:37 80° E 23:37:36 64° SSE
H-2A R/B 2.5 23:38:13 55° W 23:38:13 55° W 23:42:16 10° NNW
CZ-4B R/B 3.7 23:37:09 10° NNE 23:41:03 53° NE 23:41:03 53° NE
Cosmos 1570 Rocket 4.1 23:42:36 64° ENE 23:42:36 64° ENE 23:47:22 10° NNE
NOSS 0 Rocket 4.3 23:44:21 46° E 23:44:21 46° E 23:49:27 10° NE
ATLAS 3B R/B 4.4 23:41:25 10° NNW 23:47:08 26° NNE 23:52:14 11° E
Cosmos 2208 Rocket 4.1 23:47:57 65° ENE 23:47:57 65° ENE 23:52:44 10° NNE
Cosmos 2360 Rocket 3.6 23:42:26 10° WSW 23:47:38 36° NW 23:52:52 10° NNE
Cosmos 1606 3.9 23:49:05 40° NW 23:49:05 40° NW 23:51:58 10° N
Cosmos 1844 3.7 23:46:10 10° NNW 23:51:49 67° WSW 23:52:07 65° SW
CRYOSAT 2 4.4 23:53:04 76° WNW 23:53:04 76° WNW 23:57:46 10° N
Cosmos 1980 4.3 23:55:32 44° ENE 23:55:32 44° ENE 23:59:49 10° NE
IGS 5A 4.4 23:55:15 42° WNW 23:55:15 42° WNW 23:58:37 10° NNW
